Weather History for Buffalo, WY

Change the Weather History Date:

Saturday, October 6, 2012

  Actual Average Record
Temperature  
Mean Temperature 28 °F 49 °F  
Max Temperature 37 °F 61 °F 77 °F (1999)
Min Temperature 19 °F 37 °F 18 °F (2009)
Degree Days  
Heating Degree Days 37 16  
Month to date heating degree days 91  
Since 1 July heating degree days 405  
Cooling Degree Days 0 0  
Month to date cooling degree days 0  
Year to date cooling degree days 491  
Moisture  
Dew Point 21 °F    
Average Humidity 81    
Maximum Humidity 100    
Minimum Humidity 34    
Precipitation  
Precipitation 0.01 in 0.04 in 0.17 in (2011)
Month to date precipitation 0.27  
Year to date precipitation 11.85  
Sea Level Pressure  
Sea Level Pressure 30.38 in    
Wind  
Wind Speed 8 mph (West)    
Max Wind Speed 12 mph    
Max Gust Speed 24 mph    
Visibility 10 miles    
Events      
T = Trace of Precipitation, MM = Missing Value Source: NWS Daily Summary

Daily Weather History Graph

Daily Weather History Graph

Search for Another Location

Airport:

Trip Planner

Search our weather history database for the weather conditions in past years. The results will help you decide how hot, cold, wet, or windy it might be!

Date:

Astronomy

Oct. 06, 2012 Rise Set
Actual Time 7:11 AM MDT 6:37 PM MDT
Civil Twilight 6:42 AM MDT 7:06 PM MDT
Nautical Twilight 6:08 AM MDT 7:40 PM MDT
Astronomical Twilight 5:34 AM MDT 8:13 PM MDT
Moon 10:45 PM MDT (10/6) 1:18 PM MDT (10/6)
Length of Visible Light 12h 24m
Length of Day
11h 26m
Waning Gibbous, 65% of the Moon is Illuminated
Oct 6
Waning Gibbous
Oct 8
Last Quarter
Oct 15
New
Oct 21
First Quarter
Oct 29
Full

Hourly Weather History & Observations

Time (MDT) Temp. Windchill Dew Point Humidity Pressure Visibility Wind Dir Wind Speed Gust Speed Precip Events Conditions
12:53 AM 27.0 °F 17.3 °F 24.1 °F 89% 30.44 in 10.0 mi NNW 10.4 mph - N/A   Overcast
1:13 AM 26.6 °F 16.8 °F 24.8 °F 93% 30.36 in 10.0 mi NNW 10.4 mph 24.2 mph N/A   Overcast
1:27 AM 26.6 °F 16.8 °F 24.8 °F 93% 30.36 in 10.0 mi North 10.4 mph - N/A   Overcast
1:37 AM 26.6 °F 16.2 °F 24.8 °F 93% 30.36 in 10.0 mi NNW 11.5 mph - N/A   Overcast
1:42 AM 26.6 °F 17.5 °F 24.8 °F 93% 30.36 in 10.0 mi NNW 9.2 mph - 0.01 in   Overcast
1:53 AM 27.0 °F 17.3 °F 24.1 °F 89% 30.44 in 10.0 mi North 10.4 mph - 0.01 in   Overcast
2:17 AM 26.6 °F 18.2 °F 24.8 °F 93% 30.36 in 10.0 mi North 8.1 mph - N/A   Mostly Cloudy
2:31 AM 26.6 °F 16.2 °F 24.8 °F 93% 30.36 in 10.0 mi NNW 11.5 mph 20.7 mph N/A   Mostly Cloudy
2:53 AM 26.1 °F 16.2 °F 23.0 °F 88% 30.46 in 10.0 mi NNW 10.4 mph 19.6 mph N/A   Mostly Cloudy
3:53 AM 26.1 °F 16.2 °F 23.0 °F 88% 30.44 in 10.0 mi NW 10.4 mph - N/A   Overcast
4:40 AM 24.8 °F 19.1 °F 21.2 °F 86% 30.35 in 10.0 mi NNW 4.6 mph - N/A   Mostly Cloudy
4:53 AM 24.1 °F - 21.9 °F 91% 30.46 in 10.0 mi Calm Calm - N/A   Mostly Cloudy
5:12 AM 21.2 °F 14.9 °F 19.4 °F 93% 30.35 in 10.0 mi West 4.6 mph - N/A   Mostly Cloudy
5:27 AM 19.4 °F 11.5 °F 19.4 °F 100% 30.35 in 10.0 mi WNW 5.8 mph - N/A   Scattered Clouds
5:53 AM 19.0 °F 10.0 °F 17.1 °F 92% 30.48 in 10.0 mi West 6.9 mph - N/A   Clear
6:53 AM 19.9 °F 14.9 °F 17.1 °F 89% 30.47 in 10.0 mi WSW 3.5 mph - N/A   Mostly Cloudy
7:03 AM 19.4 °F 12.8 °F 17.6 °F 93% 30.35 in 10.0 mi WSW 4.6 mph - N/A   Scattered Clouds
7:17 AM 19.4 °F 11.5 °F 17.6 °F 93% 30.35 in 10.0 mi West 5.8 mph - N/A   Mostly Cloudy
7:48 AM 21.2 °F 14.9 °F 19.4 °F 93% 30.36 in 10.0 mi WSW 4.6 mph - N/A   Partly Cloudy
7:53 AM 21.0 °F 14.6 °F 18.0 °F 88% 30.48 in 10.0 mi WSW 4.6 mph - N/A   Partly Cloudy
8:53 AM 21.9 °F 14.5 °F 17.1 °F 82% 30.48 in 10.0 mi WSW 5.8 mph - N/A   Clear
9:53 AM 26.1 °F 19.4 °F 19.9 °F 78% 30.46 in 10.0 mi SSE 5.8 mph - N/A   Clear
10:53 AM 27.0 °F 17.3 °F 23.0 °F 85% 30.45 in 10.0 mi South 10.4 mph - N/A   Clear
11:53 AM 28.9 °F 19.8 °F 24.1 °F 82% 30.43 in 10.0 mi SSE 10.4 mph - N/A   Clear
12:53 PM 30.9 °F 21.7 °F 25.0 °F 79% 30.41 in 10.0 mi South 11.5 mph - N/A   Clear
1:53 PM 33.1 °F 25.5 °F 26.1 °F 75% 30.37 in 10.0 mi South 9.2 mph - N/A   Clear
2:53 PM 35.1 °F 28.6 °F 25.0 °F 67% 30.35 in 10.0 mi SSE 8.1 mph - N/A   Clear
3:53 PM 37.0 °F 31.6 °F 16.0 °F 42% 30.32 in 10.0 mi SE 6.9 mph - N/A   Clear
4:53 PM 37.0 °F 34.5 °F 10.9 °F 34% 30.32 in 10.0 mi South 3.5 mph - N/A   Clear
5:53 PM 36.0 °F 33.3 °F 21.0 °F 55% 30.32 in 10.0 mi South 3.5 mph - N/A   Clear
6:53 PM 30.9 °F 26.2 °F 23.0 °F 72% 30.32 in 10.0 mi SW 4.6 mph - N/A   Clear
7:53 PM 32.0 °F 28.7 °F 23.0 °F 69% 30.31 in 10.0 mi SW 3.5 mph - N/A   Clear
8:53 PM 28.0 °F 20.0 °F 21.9 °F 78% 30.33 in 10.0 mi WSW 8.1 mph - N/A   Clear
9:53 PM 28.9 °F 21.9 °F 21.0 °F 72% 30.30 in 10.0 mi West 6.9 mph - N/A   Clear
10:53 PM 28.0 °F 21.7 °F 18.0 °F 66% 30.28 in 10.0 mi WSW 5.8 mph - N/A   Clear
11:53 PM 28.9 °F - 16.0 °F 58% 30.26 in 10.0 mi Calm Calm - N/A   Clear